ATLAS 5 CENTAUR DEB, 46638

Orbit data source: Space-Track

ATLAS 5 CENTAUR DEB, 46638 is space debris in HEO originally from a launch on Wed, 17 Sep 2014 UTC launched from the Air Force Eastern Test Range (AFETR). Debris objects in space refer to the collection of defunct objects orbiting the Earth. Examples of debris include non-operational satellites, rocket bodies, and fragments generated from explosions, collisions, or faulty payload assembly.

Loading next visibility...
Identifier
46638, 2014-055CN
Orbit
HEO
Country
Flag of USUS
Related business
Flag of USUnited Launch Alliance/Lockheed Martin (US)
Manufacturer
Unknown
Mission
Spacecraft
Bus & Motor
Unknown
Mass
Unknown
Launch date (UTC)
2014-09-17 (11 years ago)
Launch vehicle
Unknown
Launch site
Air Force Eastern Test Range (AFETR)
Object type
Payload
Rocket body
Debris
Shape & HBR
Unknown shape, 1.1 m
Radar Cross Section
Small (<0.1 m²)

Expand to show TLE details & history
Last TLE update: 1 day ago

TLE from 1 day ago
0 ATLAS 5 CENTAUR DEB
1 46638U 14055CN  26071.48894234 -.00000229  00000-0  00000+0 0  9993
2 46638  21.0525 106.0535 5173996 238.7469  60.4757  1.92375673 38152
Epoch: 2026-03-12T11:44Z
TLE epoch observation values (Epoch: 2026-03-12T11:44:04.618Z)
Latitude
0.00001°
Longitude
119.97402°
Altitude
20,958.793 km
Speed
3.817 km/s
True Right ascension
07h 04m 31s
True Declination
0° 00' 00"
Sunlit
Object was in daylight at epoch
Visualization orbit readout
Latitude
Unknown
Longitude
Unknown
Altitude
Unknown
Speed
Unknown
Apparent Right ascension
Unknown
Apparent Declination
Unknown
Sunlit
N/A
Visualization observer readout
Local Sidereal Time
17:24:12
Azimuth
Unknown
Elevation
Unknown
Doppler factor
Unknown
Orbital elements
Apogee altitude
35,063.316 km
Perigee altitude
6,802.084 km
Semi-major axis
27,310.837 km
Eccentricity
0.5174
Inclination
21.0525°
RAAN
106.0535°
Arg. of periapsis
238.7469°
True anomaly
121.261°
Mean anomaly
60.4757°
Eccentric anomaly
90.12045°
Mean motion
0.48088 °/min
Orbital period
748.62 mins
BSTAR
0
Loading maneuver chart data...
Computing Atmospheric mass density...

Documentation

Showing up to 5 results
|